• In Hungary
  • List of Countries
  • For 7 days
  • Water Temperature
  • Satellite Maps
  • Weather Map
  • News
  • Weather Widgets
  • user-avatar
    Login

    Hourly Weather Miaczyn

    Today, 23 July, Monday

    Time Temperature Precipitation Wind Pressure Humidity
    00:00 +19°C° 0 mm 2 mps 737 mmHg 86%
    01:00 +19°C° 0 mm 2 mps 737 mmHg 87%
    02:00 +19°C° 0 mm 2 mps 737 mmHg 88%
    03:00 +18°C° 0.4 mm 2 mps 737 mmHg 90%
    04:00 +18°C° 0.4 mm 2 mps 737 mmHg 92%
    05:00 +18°C° 0.4 mm 3 mps 737 mmHg 94%
    06:00 +19°C° 0.2 mm 3 mps 737 mmHg 92%
    07:00 +20°C° 0.2 mm 4 mps 737 mmHg 89%
    08:00 +21°C° 0 mm 4 mps 737 mmHg 86%
    09:00 +22°C° 0.7 mm 5 mps 737 mmHg 82%
    10:00 +23°C° 0.7 mm 5 mps 737 mmHg 78%
    11:00 +25°C° 0.7 mm 5 mps 737 mmHg 74%
    12:00 +24°C° 0.6 mm 6 mps 737 mmHg 72%
    13:00 +26°C° 0.6 mm 6 mps 737 mmHg 70%
    14:00 +26°C° 0.6 mm 6 mps 737 mmHg 69%
    15:00 +26°C° 0.9 mm 6 mps 737 mmHg 73%
    16:00 +25°C° 0.9 mm 5 mps 737 mmHg 77%
    17:00 +23°C° 0.9 mm 5 mps 736 mmHg 81%
    18:00 +23°C° 0.7 mm 5 mps 736 mmHg 83%
    19:00 +22°C° 0.7 mm 5 mps 736 mmHg 85%
    20:00 +21°C° 0.7 mm 5 mps 736 mmHg 88%
    21:00 +21°C° 0.9 mm 5 mps 736 mmHg 88%
    22:00 +21°C° 0.9 mm 5 mps 737 mmHg 89%
    23:00 +20°C° 0.9 mm 5 mps 737 mmHg 89%

    Tomorrow, 24 July, Tuesday

    Time Temperature Precipitation Wind Pressure Humidity
    00:00 +20°C° 0.4 mm 5 mps 737 mmHg 90%
    01:00 +20°C° 0.4 mm 5 mps 737 mmHg 91%
    02:00 +19°C° 0.4 mm 5 mps 737 mmHg 92%
    03:00 +19°C° 0.2 mm 4 mps 737 mmHg 93%
    04:00 +19°C° 0.2 mm 4 mps 737 mmHg 94%
    05:00 +18°C° 0.2 mm 4 mps 737 mmHg 95%
    06:00 +19°C° 0.5 mm 4 mps 737 mmHg 94%
    07:00 +19°C° 0.5 mm 4 mps 737 mmHg 93%
    08:00 +20°C° 0.5 mm 4 mps 738 mmHg 92%
    09:00 +20°C° 0.3 mm 4 mps 738 mmHg 91%
    10:00 +21°C° 0.3 mm 4 mps 738 mmHg 90%
    11:00 +22°C° 0.3 mm 4 mps 738 mmHg 88%
    12:00 +23°C° 0.4 mm 4 mps 738 mmHg 83%
    13:00 +25°C° 0.4 mm 4 mps 737 mmHg 78%
    14:00 +26°C° 0.4 mm 4 mps 737 mmHg 72%
    15:00 +26°C° 0.7 mm 4 mps 737 mmHg 74%
    16:00 +26°C° 0.7 mm 4 mps 737 mmHg 75%
    17:00 +26°C° 0.7 mm 5 mps 737 mmHg 77%
    18:00 +25°C° 0.8 mm 4 mps 737 mmHg 81%
    19:00 +23°C° 0.8 mm 4 mps 737 mmHg 85%
    20:00 +22°C° 0.8 mm 3 mps 737 mmHg 89%
    21:00 +21°C° 0.3 mm 3 mps 737 mmHg 91%
    22:00 +20°C° 0.3 mm 3 mps 737 mmHg 93%
    23:00 +20°C° 0.3 mm 3 mps 737 mmHg 95%

    Day after tomorrow, 25 July, Wednesday

    Time Temperature Precipitation Wind Pressure Humidity
    00:00 +19°C° 0 mm 3 mps 737 mmHg 96%
    01:00 +19°C° 0 mm 3 mps 737 mmHg 96%
    02:00 +19°C° 0 mm 3 mps 737 mmHg 97%
    03:00 +18°C° 0 mm 3 mps 737 mmHg 97%
    04:00 +18°C° 0 mm 3 mps 738 mmHg 98%
    05:00 +18°C° 0 mm 2 mps 738 mmHg 98%
    06:00 +19°C° 0 mm 3 mps 738 mmHg 97%
    07:00 +19°C° 0 mm 3 mps 738 mmHg 95%
    08:00 +20°C° 0 mm 3 mps 738 mmHg 93%
    09:00 +21°C° 0.1 mm 3 mps 738 mmHg 90%
    10:00 +22°C° 0.1 mm 3 mps 738 mmHg 88%
    11:00 +24°C° 0.1 mm 3 mps 738 mmHg 85%
    12:00 +25°C° 0.4 mm 3 mps 738 mmHg 81%
    13:00 +26°C° 0.4 mm 3 mps 738 mmHg 77%
    14:00 +27°C° 0.4 mm 3 mps 738 mmHg 73%
    15:00 +26°C° 1.1 mm 3 mps 738 mmHg 73%
    16:00 +26°C° 1.1 mm 3 mps 738 mmHg 74%
    17:00 +26°C° 1.1 mm 3 mps 738 mmHg 75%
    18:00 +25°C° 0.5 mm 3 mps 738 mmHg 79%
    19:00 +24°C° 0.5 mm 2 mps 738 mmHg 83%
    20:00 +23°C° 0.5 mm 2 mps 738 mmHg 88%
    21:00 +21°C° 0 mm 2 mps 738 mmHg 89%
    22:00 +21°C° 0 mm 2 mps 738 mmHg 91%
    23:00 +21°C° 0 mm 1 mps 738 mmHg 93%

    26 July, Thursday

    Time Temperature Precipitation Wind Pressure Humidity
    00:00 +20°C° 0 mm 2 mps 738 mmHg 94%
    01:00 +19°C° 0 mm 2 mps 738 mmHg 95%
    02:00 +19°C° 0 mm 2 mps 738 mmHg 96%
    03:00 +19°C° 0 mm 2 mps 738 mmHg 96%
    04:00 +19°C° 0 mm 2 mps 739 mmHg 96%
    05:00 +18°C° 0 mm 2 mps 739 mmHg 97%
    06:00 +20°C° 0 mm 2 mps 739 mmHg 94%
    07:00 +21°C° 0 mm 2 mps 739 mmHg 91%
    08:00 +23°C° 0 mm 2 mps 739 mmHg 88%
    09:00 +24°C° 0.2 mm 2 mps 739 mmHg 83%
    10:00 +26°C° 0.2 mm 2 mps 739 mmHg 78%
    11:00 +27°C° 0.2 mm 2 mps 739 mmHg 72%
    12:00 +28°C° 0.3 mm 2 mps 739 mmHg 69%
    13:00 +28°C° 0.3 mm 2 mps 739 mmHg 66%
    14:00 +29°C° 0.3 mm 3 mps 739 mmHg 63%
    15:00 +29°C° 0.8 mm 3 mps 739 mmHg 66%
    16:00 +29°C° 0.8 mm 3 mps 739 mmHg 68%
    17:00 +29°C° 0.8 mm 3 mps 739 mmHg 71%
    18:00 +27°C° 1 mm 2 mps 739 mmHg 75%
    19:00 +26°C° 1 mm 2 mps 739 mmHg 79%
    20:00 +25°C° 1 mm 2 mps 739 mmHg 84%
    21:00 +24°C° 0.5 mm 2 mps 739 mmHg 86%
    22:00 +23°C° 0.5 mm 2 mps 739 mmHg 88%
    23:00 +23°C° 0.5 mm 2 mps 739 mmHg 90%

    27 July, Friday

    Time Temperature Precipitation Wind Pressure Humidity
    00:00 +21°C° 0.4 mm 2 mps 739 mmHg 91%
    01:00 +21°C° 0.4 mm 2 mps 739 mmHg 92%
    02:00 +20°C° 0.4 mm 2 mps 739 mmHg 93%
    03:00 +20°C° 0 mm 2 mps 739 mmHg 94%
    04:00 +20°C° 0 mm 2 mps 740 mmHg 94%
    05:00 +20°C° 0 mm 2 mps 740 mmHg 95%
    06:00 +21°C° 0 mm 2 mps 740 mmHg 92%
    07:00 +23°C° 0 mm 2 mps 740 mmHg 89%
    08:00 +25°C° 0 mm 2 mps 740 mmHg 86%
    09:00 +26°C° 0.1 mm 3 mps 740 mmHg 81%
    10:00 +27°C° 0.1 mm 3 mps 740 mmHg 75%
    11:00 +29°C° 0.1 mm 4 mps 740 mmHg 69%
    12:00 +29°C° 0.3 mm 4 mps 740 mmHg 67%
    13:00 +30°C° 0.3 mm 3 mps 740 mmHg 65%
    14:00 +30°C° 0.3 mm 3 mps 740 mmHg 62%
    15:00 +30°C° 0.2 mm 3 mps 739 mmHg 63%
    16:00 +30°C° 0.2 mm 3 mps 739 mmHg 64%
    17:00 +30°C° 0.2 mm 3 mps 739 mmHg 65%
    18:00 +28°C° 0.1 mm 3 mps 739 mmHg 71%
    19:00 +27°C° 0.1 mm 3 mps 739 mmHg 76%
    20:00 +25°C° 0.1 mm 2 mps 739 mmHg 81%
    21:00 +25°C° 0 mm 2 mps 739 mmHg 83%
    22:00 +24°C° 0 mm 2 mps 739 mmHg 86%
    23:00 +23°C° 0 mm 2 mps 739 mmHg 88%

    28 July, Saturday

    Time Temperature Precipitation Wind Pressure Humidity
    00:00 +21°C° 0 mm 2 mps 739 mmHg 89%
    01:00 +21°C° 0 mm 2 mps 739 mmHg 91%
    02:00 +20°C° 0 mm 2 mps 739 mmHg 93%
    03:00 +20°C° 0 mm 2 mps 739 mmHg 94%
    04:00 +20°C° 0 mm 2 mps 739 mmHg 94%
    05:00 +20°C° 0 mm 2 mps 738 mmHg 95%
    06:00 +21°C° 0 mm 2 mps 739 mmHg 91%
    07:00 +23°C° 0 mm 2 mps 739 mmHg 87%
    08:00 +25°C° 0 mm 2 mps 739 mmHg 83%
    09:00 +26°C° 0.2 mm 2 mps 739 mmHg 78%
    10:00 +27°C° 0.2 mm 2 mps 739 mmHg 73%
    11:00 +29°C° 0.2 mm 2 mps 739 mmHg 68%
    12:00 +29°C° 0.7 mm 2 mps 738 mmHg 66%
    13:00 +30°C° 0.7 mm 3 mps 738 mmHg 65%
    14:00 +30°C° 0.7 mm 3 mps 738 mmHg 64%
    15:00 +30°C° 1 mm 3 mps 738 mmHg 65%
    16:00 +30°C° 1 mm 2 mps 738 mmHg 67%
    17:00 +29°C° 1 mm 2 mps 738 mmHg 69%
    18:00 +28°C° 0.6 mm 2 mps 738 mmHg 74%
    19:00 +27°C° 0.6 mm 2 mps 738 mmHg 80%
    20:00 +25°C° 0.6 mm 2 mps 738 mmHg 85%
    21:00 +24°C° 0 mm 2 mps 738 mmHg 87%
    22:00 +24°C° 0 mm 2 mps 738 mmHg 90%
    23:00 +23°C° 0 mm 2 mps 738 mmHg 92%
    Show more